Poughkeepsie, NY

4:05 PM EDT on June 25, 2017 (GMT -0400)
Dutchess County

Weather History for KPOU - November, 2014

Change the Weather History Date:

Saturday, November 1, 2014

  Actual Average Record
Temperature  
Mean Temperature 45 °F 46 °F  
Max Temperature 49 °F 58 °F 82 °F (1950)
Min Temperature 40 °F 34 °F 21 °F (1964)
Degree Days  
Heating Degree Days 20 19  
Month to date heating degree days 20 19  
Since 1 July heating degree days 429 595  
Cooling Degree Days 0 0  
Month to date cooling degree days 0 0  
Year to date cooling degree days 696 672  
Moisture  
Dew Point 36 °F    
Average Humidity 72    
Maximum Humidity 89    
Minimum Humidity 54    
Precipitation  
Precipitation 0.10 in 0.12 in 1.28 in (1988)
Month to date precipitation 0.10 0.12  
Year to date precipitation 29.05 39.65  
Sea Level Pressure  
Sea Level Pressure 29.87 in    
Wind  
Wind Speed 12 mph (North)    
Max Wind Speed 25 mph    
Max Gust Speed 37 mph    
Visibility 10 miles    
Events Rain    
T = Trace of Precipitation, MM = Missing Value Source: NWS Daily Summary

Daily Weather History Graph

Daily Weather History Graph

Search for Another Location

Airport or City:

Trip Planner

Search our weather history database for the weather conditions in past years. The results will help you decide how hot, cold, wet, or windy it might be!

Date:

Astronomy

Nov. 01, 2014 Rise Set
Actual Time 7:27 AM EDT 5:50 PM EDT
Civil Twilight 6:58 AM EDT 6:18 PM EDT
Nautical Twilight 6:25 AM EDT 6:51 PM EDT
Astronomical Twilight 5:53 AM EDT 7:24 PM EDT
Moon 2:46 PM EDT (11/1) 1:15 AM EDT (11/1)
Length of Visible Light 11h 20m
Length of Day
10h 22m
Waxing Gibbous, 67% of the Moon is Illuminated
Nov 1
Waxing Gibbous
Nov 6
Full
Nov 14
Last Quarter
Nov 22
New
Nov 29
First Quarter

Hourly Weather History & Observations

Time (EDT) Temp. Windchill Dew Point Humidity Pressure Visibility Wind Dir Wind Speed Gust Speed Precip Events Conditions
12:53 AM 48.0 °F - 37.0 °F 66% 29.91 in 10.0 mi NNE 9.2 mph - N/A   Overcast
1:53 AM 46.0 °F 41.9 °F 39.9 °F 79% 29.90 in 10.0 mi North 8.1 mph - 0.01 in Rain Light Rain
2:53 AM 45.0 °F 40.6 °F 41.0 °F 86% 29.89 in 6.0 mi North 8.1 mph - 0.01 in Rain Light Rain
3:53 AM 45.0 °F 41.2 °F 41.0 °F 86% 29.88 in 10.0 mi North 6.9 mph - 0.02 in Rain Light Rain
4:53 AM 45.0 °F 41.8 °F 41.0 °F 86% 29.86 in 10.0 mi North 5.8 mph - 0.00 in   Overcast
5:53 AM 44.1 °F 42.5 °F 41.0 °F 89% 29.90 in 8.0 mi North 3.5 mph - 0.01 in Rain Light Rain
6:53 AM 44.1 °F 40.8 °F 39.0 °F 82% 29.88 in 10.0 mi North 5.8 mph - 0.04 in   Overcast
7:53 AM 44.1 °F 39.5 °F 37.9 °F 79% 29.88 in 10.0 mi North 8.1 mph - N/A   Overcast
8:53 AM 44.1 °F 40.8 °F 36.0 °F 73% 29.91 in 10.0 mi North 5.8 mph - N/A   Overcast
9:53 AM 44.1 °F 38.1 °F 34.0 °F 68% 29.89 in 10.0 mi North 11.5 mph - N/A   Scattered Clouds
10:53 AM 45.0 °F 40.1 °F 34.0 °F 65% 29.88 in 10.0 mi North 9.2 mph - N/A   Overcast
11:53 AM 46.9 °F - 33.1 °F 59% 29.87 in 10.0 mi North 8.1 mph - N/A   Overcast
12:53 PM 48.0 °F - 33.1 °F 56% 29.84 in 10.0 mi North 15.0 mph 23.0 mph N/A   Mostly Cloudy
1:53 PM 48.9 °F - 33.1 °F 54% 29.82 in 10.0 mi North 12.7 mph 25.3 mph N/A   Overcast
2:53 PM 48.0 °F - 32.0 °F 54% 29.83 in 10.0 mi North 17.3 mph 27.6 mph N/A   Overcast
3:53 PM 46.0 °F 39.9 °F 33.1 °F 61% 29.83 in 10.0 mi NNE 13.8 mph 27.6 mph 0.00 in Rain Light Rain
4:53 PM 45.0 °F 36.9 °F 34.0 °F 65% 29.84 in 10.0 mi North 20.7 mph 29.9 mph 0.00 in   Overcast
5:53 PM 43.0 °F 34.8 °F 35.1 °F 74% 29.85 in 10.0 mi North 18.4 mph 36.8 mph N/A   Overcast
6:53 PM 42.1 °F 34.2 °F 35.1 °F 76% 29.86 in 10.0 mi North 16.1 mph 29.9 mph N/A   Overcast
7:00 PM 42.1 °F 33.6 °F 35.1 °F 76% 29.87 in 10.0 mi North 18.4 mph 27.6 mph N/A   Overcast
7:53 PM 41.0 °F 33.1 °F 36.0 °F 82% 29.86 in 10.0 mi North 15.0 mph 21.9 mph 0.00 in Rain Light Rain
8:11 PM 41.0 °F 32.2 °F 36.0 °F 82% 29.87 in 10.0 mi North 18.4 mph 27.6 mph 0.01 in Rain Light Rain
8:53 PM 41.0 °F 32.5 °F 36.0 °F 82% 29.85 in 10.0 mi North 17.3 mph 26.5 mph 0.01 in   Overcast
9:53 PM 41.0 °F 33.5 °F 35.1 °F 79% 29.86 in 10.0 mi NNW 13.8 mph 20.7 mph N/A   Overcast
10:53 PM 41.0 °F 33.5 °F 35.1 °F 79% 29.87 in 10.0 mi North 13.8 mph 27.6 mph N/A   Overcast
11:53 PM 39.9 °F 31.4 °F 35.1 °F 83% 29.87 in 10.0 mi North 16.1 mph 24.2 mph N/A   Overcast